| time (UTC) | temp F | wind direction | speed MPH | gust MPH | rain 1hr in | rain 24hr in | rain mn in | humidity % | barometer mb |
| 20260901105004 | 68 | 0 | 0.0 | 0.0 | 0.00 | 0.15 | 0.07 | 100 | 1014.6 |
| 20260901104004 | 68 | 0 | 0.0 | 0.0 | 0.00 | 0.15 | 0.07 | 100 | 1014.4 |
| 20260901103004 | 68 | 0 | 0.0 | 0.0 | 0.01 | 0.15 | 0.07 | 100 | 1014.4 |
| 20260901102004 | 68 | 0 | 0.0 | 0.0 | 0.04 | 0.15 | 0.07 | 100 | 1014.1 |
| 20260901101005 | 68 | 135 | 1.0 | 3.0 | 0.05 | 0.15 | 0.07 | 100 | 1014.1 |
| 20260901100006 | 69 | 135 | 1.0 | 3.0 | 0.05 | 0.15 | 0.07 | 100 | 1014.2 |
| 20260901095004 | 69 | 0 | 0.0 | 0.0 | 0.05 | 0.15 | 0.07 | 100 | 1014.7 |
| 20260901094004 | 69 | 0 | 0.0 | 0.0 | 0.05 | 0.15 | 0.07 | 100 | 1014.9 |
| 20260901093005 | 69 | 0 | 0.0 | 0.0 | 0.02 | 0.13 | 0.05 | 100 | 1015.2 |
| 20260901092213 | 69 | 0 | 0.0 | 1.0 | 0.01 | 0.12 | 0.04 | 100 | 1014.8 |
| 20260901091007 | 69 | 135 | 1.0 | 3.0 | 0.00 | 0.11 | 0.02 | 100 | 1014.5 |
| 20260901090004 | 69 | 142 | 1.0 | 4.0 | 0.00 | 0.11 | 0.02 | 100 | 1014.4 |
| 20260901085213 | 69 | 141 | 0.0 | 3.0 | 0.00 | 0.11 | 0.02 | 100 | 1014.2 |
| 20260901084214 | 69 | 137 | 0.0 | 2.0 | 0.00 | 0.11 | 0.02 | 100 | 1014.3 |
| 20260901083005 | 69 | 135 | 0.0 | 3.0 | 0.00 | 0.11 | 0.02 | 100 | 1014.4 |
| 20260901082005 | 68 | 156 | 1.0 | 3.0 | 0.00 | 0.11 | 0.02 | 100 | 1014.5 |
| 20260901081215 | 68 | 142 | 0.0 | 3.0 | 0.00 | 0.11 | 0.02 | 100 | 1014.5 |
| 20260901080003 | 68 | 145 | 0.0 | 2.0 | 0.01 | 0.11 | 0.02 | 100 | 1014.8 |
| 20260901075005 | 68 | 169 | 0.0 | 3.0 | 0.02 | 0.11 | 0.02 | 100 | 1014.8 |
| 20260901074003 | 68 | 0 | 0.0 | 0.0 | 0.02 | 0.11 | 0.02 | 100 | 1015.1 |
| 20260901073003 | 68 | 0 | 0.0 | 2.0 | 0.02 | 0.11 | 0.02 | 100 | 1015.1 |
| 20260901072006 | 68 | 0 | 0.0 | 1.0 | 0.02 | 0.11 | 0.02 | 100 | 1015.2 |
| 20260901071004 | 68 | 0 | 0.0 | 0.0 | 0.02 | 0.11 | 0.02 | 100 | 1015.4 |
| 20260901070005 | 68 | 0 | 0.0 | 0.0 | 0.00 | 0.08 | 0.00 | 100 | 1015.5 |
| 20260901065004 | 68 | 0 | 0.0 | 0.0 | 0.00 | 0.08 | 0.00 | 100 | 1015.6 |
| 20260901064003 | 68 | 0 | 0.0 | 0.0 | 0.00 | 0.08 | 0.00 | 100 | 1015.8 |
| 20260901063004 | 68 | 0 | 0.0 | 0.0 | 0.00 | 0.08 | 0.00 | 100 | 1015.7 |
| 20260901062003 | 68 | 0 | 0.0 | 0.0 | 0.00 | 0.08 | 0.00 | 100 | 1015.7 |
| 20260901061004 | 68 | 0 | 0.0 | 0.0 | 0.00 | 0.08 | 0.00 | 100 | 1015.7 |
| 20260901060003 | 68 | 0 | 0.0 | 0.0 | 0.00 | 0.08 | 0.00 | 100 | 1015.7 |
| 20260901055003 | 68 | 0 | 0.0 | 0.0 | 0.00 | 0.08 | 0.00 | 100 | 1015.9 |
| 20260901054003 | 68 | 0 | 0.0 | 0.0 | 0.00 | 0.08 | 0.00 | 100 | 1015.8 |
| 20260901053003 | 68 | 0 | 0.0 | 0.0 | 0.00 | 0.08 | 0.00 | 100 | 1016.2 |
| 20260901052004 | 68 | 0 | 0.0 | 0.0 | 0.00 | 0.08 | 0.00 | 100 | 1016.3 |
| 20260901051003 | 68 | 0 | 0.0 | 0.0 | 0.00 | 0.08 | 0.00 | 100 | 1016.2 |
| 20260901050003 | 68 | 0 | 0.0 | 0.0 | 0.00 | 0.08 | 0.00 | 100 | 1016.1 |
| 20260901045213 | 68 | 0 | 0.0 | 0.0 | 0.00 | 0.08 | 0.00 | 100 | 1016.2 |
| 20260901044215 | 68 | 0 | 0.0 | 0.0 | 0.00 | 0.08 | 0.00 | 100 | 1016.3 |
| 20260901043215 | 68 | 0 | 0.0 | 0.0 | 0.00 | 0.08 | 0.00 | 100 | 1016.4 |
| 20260901042003 | 68 | 0 | 0.0 | 0.0 | 0.00 | 0.08 | 0.00 | 100 | 1016.5 |
| 20260901041003 | 68 | 0 | 0.0 | 0.0 | 0.00 | 0.08 | 0.00 | 100 | 1016.6 |
| 20260901040217 | 68 | 0 | 0.0 | 0.0 | 0.00 | 0.08 | 0.00 | 100 | 1016.5 |
| 20260901035215 | 68 | 0 | 0.0 | 0.0 | 0.00 | 0.08 | 0.08 | 100 | 1016.5 |
| 20260901034215 | 68 | 0 | 0.0 | 0.0 | 0.00 | 0.08 | 0.08 | 100 | 1016.6 |
| 20260901033215 | 68 | 0 | 0.0 | 0.0 | 0.00 | 0.08 | 0.08 | 100 | 1016.6 |
| 20260901032004 | 68 | 0 | 0.0 | 0.0 | 0.00 | 0.08 | 0.08 | 100 | 1016.8 |
| 20260901031005 | 68 | 0 | 0.0 | 0.0 | 0.00 | 0.08 | 0.08 | 100 | 1016.9 |
| 20260901030004 | 68 | 0 | 0.0 | 0.0 | 0.00 | 0.08 | 0.08 | 100 | 1016.7 |
| 20260901025005 | 68 | 0 | 0.0 | 0.0 | 0.00 | 0.08 | 0.08 | 100 | 1016.7 |
| 20260901024004 | 68 | 0 | 0.0 | 0.0 | 0.01 | 0.08 | 0.08 | 100 | 1016.8 |
| 20260901023214 | 68 | 0 | 0.0 | 0.0 | 0.01 | 0.08 | 0.08 | 100 | 1016.8 |
| 20260901022004 | 68 | 0 | 0.0 | 0.0 | 0.01 | 0.08 | 0.08 | 100 | 1016.8 |
| 20260901021004 | 68 | 0 | 0.0 | 0.0 | 0.01 | 0.08 | 0.08 | 100 | 1016.8 |
| 20260901020214 | 68 | 0 | 0.0 | 0.0 | 0.01 | 0.08 | 0.08 | 100 | 1017.0 |
| 20260901015004 | 68 | 0 | 0.0 | 0.0 | 0.01 | 0.08 | 0.08 | 100 | 1017.2 |
| 20260901014003 | 68 | 0 | 0.0 | 0.0 | 0.00 | 0.07 | 0.07 | 100 | 1017.2 |
| 20260901013004 | 68 | 0 | 0.0 | 0.0 | 0.00 | 0.07 | 0.07 | 100 | 1017.3 |
| 20260901012004 | 68 | 0 | 0.0 | 0.0 | 0.00 | 0.07 | 0.07 | 99 | 1017.3 |
| 20260901011004 | 68 | 0 | 0.0 | 0.0 | 0.00 | 0.07 | 0.07 | 99 | 1017.2 |
| 20260901010005 | 68 | 0 | 0.0 | 0.0 | 0.00 | 0.07 | 0.07 | 99 | 1017.0 |
| 20260901005005 | 68 | 0 | 0.0 | 0.0 | 0.00 | 0.07 | 0.07 | 99 | 1017.1 |
| 20260901004007 | 68 | 0 | 0.0 | 0.0 | 0.00 | 0.07 | 0.07 | 98 | 1017.0 |
| 20260901003003 | 68 | 0 | 0.0 | 0.0 | 0.00 | 0.07 | 0.07 | 98 | 1017.1 |
| 20260901002003 | 68 | 0 | 0.0 | 0.0 | 0.00 | 0.07 | 0.07 | 98 | 1016.9 |
| 20260901001215 | 68 | 0 | 0.0 | 0.0 | 0.00 | 0.07 | 0.07 | 98 | 1016.9 |
| 20260901000003 | 68 | 0 | 0.0 | 0.0 | 0.01 | 0.07 | 0.07 | 97 | 1016.9 |
| 20260831235003 | 68 | 0 | 0.0 | 0.0 | 0.01 | 0.07 | 0.07 | 97 | 1016.8 |
| 20260831234213 | 68 | 0 | 0.0 | 0.0 | 0.01 | 0.07 | 0.07 | 97 | 1016.9 |
| 20260831233213 | 68 | 0 | 0.0 | 0.0 | 0.02 | 0.07 | 0.07 | 97 | 1017.0 |
| 20260831232003 | 69 | 0 | 0.0 | 0.0 | 0.02 | 0.07 | 0.07 | 96 | 1017.0 |
| 20260831231003 | 69 | 0 | 0.0 | 0.0 | 0.02 | 0.07 | 0.07 | 96 | 1017.0 |
| 20260831230005 | 69 | 0 | 0.0 | 1.0 | 0.01 | 0.06 | 0.06 | 95 | 1017.1 |
| 20260831225003 | 69 | 0 | 0.0 | 1.0 | 0.01 | 0.06 | 0.06 | 95 | 1017.0 |
| 20260831224004 | 69 | 0 | 0.0 | 1.0 | 0.01 | 0.06 | 0.06 | 95 | 1017.2 |
| 20260831223003 | 69 | 179 | 0.0 | 3.0 | 0.00 | 0.05 | 0.05 | 94 | 1017.3 |
| 20260831222005 | 70 | 0 | 0.0 | 2.0 | 0.01 | 0.05 | 0.05 | 94 | 1017.3 |
| 20260831221004 | 70 | 263 | 0.0 | 3.0 | 0.01 | 0.05 | 0.05 | 94 | 1017.3 |
| 20260831220003 | 70 | 270 | 0.0 | 2.0 | 0.01 | 0.05 | 0.05 | 94 | 1017.4 |
| 20260831215004 | 69 | 0 | 0.0 | 0.0 | 0.01 | 0.05 | 0.05 | 94 | 1017.4 |
| 20260831214003 | 69 | 0 | 0.0 | 0.0 | 0.01 | 0.05 | 0.05 | 93 | 1017.5 |
| 20260831213004 | 69 | 0 | 0.0 | 0.0 | 0.01 | 0.05 | 0.05 | 92 | 1017.5 |
| 20260831212004 | 69 | 0 | 0.0 | 0.0 | 0.00 | 0.04 | 0.04 | 91 | 1017.7 |
| 20260831211003 | 69 | 0 | 0.0 | 1.0 | 0.00 | 0.04 | 0.04 | 91 | 1017.8 |
| 20260831210005 | 69 | 0 | 0.0 | 0.0 | 0.00 | 0.04 | 0.04 | 91 | 1017.8 |
| 20260831205004 | 69 | 0 | 0.0 | 0.0 | 0.00 | 0.04 | 0.04 | 90 | 1018.1 |
| 20260831204004 | 69 | 0 | 0.0 | 2.0 | 0.00 | 0.04 | 0.04 | 90 | 1018.0 |
| 20260831203004 | 69 | 0 | 0.0 | 2.0 | 0.00 | 0.04 | 0.04 | 89 | 1018.1 |
| 20260831202005 | 69 | 159 | 0.0 | 2.0 | 0.00 | 0.04 | 0.04 | 89 | 1018.1 |
| 20260831201006 | 70 | 167 | 1.0 | 3.0 | 0.00 | 0.04 | 0.04 | 89 | 1018.0 |
| 20260831200004 | 70 | 159 | 0.0 | 3.0 | 0.00 | 0.04 | 0.04 | 89 | 1018.0 |
| 20260831195005 | 69 | 148 | 1.0 | 3.0 | 0.00 | 0.04 | 0.04 | 90 | 1017.9 |
| 20260831194006 | 69 | 142 | 1.0 | 3.0 | 0.00 | 0.04 | 0.04 | 89 | 1017.9 |
| 20260831193004 | 69 | 143 | 1.0 | 3.0 | 0.00 | 0.04 | 0.04 | 89 | 1018.2 |
| 20260831192005 | 69 | 141 | 0.0 | 3.0 | 0.00 | 0.04 | 0.04 | 89 | 1018.4 |
| 20260831191004 | 69 | 0 | 0.0 | 0.0 | 0.00 | 0.04 | 0.04 | 89 | 1018.4 |
| 20260831190005 | 69 | 150 | 0.0 | 4.0 | 0.00 | 0.04 | 0.04 | 89 | 1018.5 |
| 20260831185004 | 70 | 6 | 0.0 | 3.0 | 0.00 | 0.04 | 0.04 | 89 | 1018.7 |
| 20260831184215 | 70 | 241 | 1.0 | 3.0 | 0.00 | 0.04 | 0.04 | 89 | 1018.6 |
| 20260831183004 | 69 | 152 | 0.0 | 2.0 | 0.00 | 0.04 | 0.04 | 90 | 1018.8 |
| 20260831182005 | 69 | 0 | 0.0 | 2.0 | 0.00 | 0.04 | 0.04 | 92 | 1018.9 |
| 20260831181005 | 69 | 315 | 0.0 | 2.0 | 0.00 | 0.04 | 0.04 | 94 | 1018.8 |
| 20260831180004 | 68 | 0 | 0.0 | 0.0 | 0.00 | 0.04 | 0.04 | 93 | 1018.9 |
| 20260831175005 | 68 | 0 | 0.0 | 1.0 | 0.00 | 0.04 | 0.04 | 94 | 1019.3 |
| 20260831174003 | 67 | 0 | 0.0 | 0.0 | 0.00 | 0.04 | 0.04 | 93 | 1019.4 |
| 20260831173003 | 67 | 101 | 0.0 | 4.0 | 0.00 | 0.04 | 0.04 | 93 | 1019.5 |
| 20260831172004 | 67 | 0 | 0.0 | 2.0 | 0.00 | 0.04 | 0.04 | 93 | 1019.5 |
| 20260831171004 | 67 | 140 | 1.0 | 3.0 | 0.00 | 0.04 | 0.04 | 94 | 1019.4 |
| 20260831170003 | 67 | 141 | 1.0 | 4.0 | 0.00 | 0.04 | 0.04 | 93 | 1019.5 |
| 20260831165004 | 67 | 130 | 1.0 | 5.0 | 0.00 | 0.04 | 0.04 | 93 | 1019.7 |
| 20260831164004 | 67 | 133 | 0.0 | 3.0 | 0.00 | 0.04 | 0.04 | 94 | 1019.8 |
| 20260831163003 | 67 | 146 | 0.0 | 3.0 | 0.00 | 0.04 | 0.04 | 94 | 1019.7 |
| 20260831162004 | 67 | 155 | 0.0 | 3.0 | 0.00 | 0.04 | 0.04 | 94 | 1019.9 |
| 20260831161003 | 67 | 0 | 0.0 | 2.0 | 0.00 | 0.04 | 0.04 | 94 | 1020.2 |
| 20260831160003 | 67 | 135 | 1.0 | 3.0 | 0.00 | 0.04 | 0.04 | 94 | 1020.1 |
| 20260831155003 | 67 | 135 | 1.0 | 4.0 | 0.00 | 0.04 | 0.04 | 94 | 1019.9 |
| 20260831154004 | 67 | 151 | 0.0 | 3.0 | 0.00 | 0.04 | 0.04 | 94 | 1020.1 |
| 20260831153004 | 67 | 135 | 1.0 | 4.0 | 0.01 | 0.04 | 0.04 | 93 | 1019.9 |
| 20260831152004 | 67 | 138 | 1.0 | 4.0 | 0.01 | 0.04 | 0.04 | 92 | 1020.0 |
| 20260831151003 | 67 | 135 | 0.0 | 3.0 | 0.04 | 0.04 | 0.04 | 92 | 1020.1 |
| 20260831150214 | 67 | 149 | 0.0 | 3.0 | 0.04 | 0.04 | 0.04 | 91 | 1020.3 |
| 20260831145214 | 68 | 143 | 0.0 | 3.0 | 0.04 | 0.04 | 0.04 | 90 | 1020.3 |
| 20260831144214 | 68 | 0 | 0.0 | 2.0 | 0.04 | 0.04 | 0.04 | 89 | 1020.2 |
| 20260831143004 | 69 | 0 | 0.0 | 0.0 | 0.02 | 0.02 | 0.02 | 86 | 1020.1 |
| 20260831142003 | 69 | 177 | 0.0 | 2.0 | 0.01 | 0.01 | 0.01 | 85 | 1019.9 |
| 20260831141005 | 69 | 315 | 1.0 | 3.0 | 0.00 | 0.00 | 0.00 | 83 | 1019.9 |
| 20260831140003 | 69 | 157 | 1.0 | 3.0 | 0.00 | 0.00 | 0.00 | 83 | 1019.9 |
| 20260831135004 | 69 | 135 | 0.0 | 3.0 | 0.00 | 0.00 | 0.00 | 84 | 1019.8 |
| 20260831134006 | 69 | 157 | 0.0 | 2.0 | 0.00 | 0.00 | 0.00 | 85 | 1019.9 |
| 20260831133005 | 68 | 112 | 0.0 | 2.0 | 0.00 | 0.00 | 0.00 | 86 | 1020.0 |
| 20260831132005 | 68 | 113 | 0.0 | 3.0 | 0.00 | 0.00 | 0.00 | 87 | 1019.9 |
| 20260831131004 | 67 | 149 | 0.0 | 2.0 | 0.00 | 0.00 | 0.00 | 87 | 1019.8 |
| 20260831130005 | 67 | 180 | 0.0 | 2.0 | 0.00 | 0.00 | 0.00 | 87 | 1019.8 |
| 20260831125004 | 67 | 180 | 0.0 | 2.0 | 0.00 | 0.00 | 0.00 | 88 | 1020.1 |
| 20260831124004 | 66 | 165 | 0.0 | 2.0 | 0.00 | 0.00 | 0.00 | 88 | 1019.8 |
| 20260831123004 | 66 | 139 | 0.0 | 2.0 | 0.00 | 0.00 | 0.00 | 89 | 1020.1 |
| 20260831122007 | 66 | 136 | 1.0 | 2.0 | 0.00 | 0.00 | 0.00 | 90 | 1020.1 |
| 20260831121004 | 65 | 169 | 1.0 | 2.0 | 0.00 | 0.00 | 0.00 | 90 | 1020.1 |
| 20260831120006 | 65 | 149 | 1.0 | 3.0 | 0.00 | 0.00 | 0.00 | 91 | 1020.4 |
| 20260831115004 | 65 | 183 | 1.0 | 3.0 | 0.00 | 0.00 | 0.00 | 91 | 1020.4 |
| 20260831114005 | 65 | 159 | 1.0 | 3.0 | 0.00 | 0.00 | 0.00 | 91 | 1020.2 |
| 20260831113004 | 64 | 168 | 1.0 | 3.0 | 0.00 | 0.00 | 0.00 | 91 | 1020.2 |
| 20260831112213 | 64 | 165 | 0.0 | 3.0 | 0.00 | 0.00 | 0.00 | 91 | 1020.3 |
| 20260831111215 | 64 | 0 | 0.0 | 0.0 | 0.00 | 0.00 | 0.00 | 91 | 1020.2 |
| 20260831110214 | 64 | 152 | 0.0 | 3.0 | 0.00 | 0.00 | 0.00 | 91 | 1020.3 |